^^
Station Historical Data
 
Daily Summary for May 21, 2018 Units:  English    Metric   Both
« Previous Day
Next Day »
Daily Weekly Monthly Yearly Custom
  Current: High: Low: Average:
Temperature: 6.6 °F TemperatureC °F 6.6 °F 8.6 °F
Dew Point: 4.1 °F DewpointC °F 4.1 °F 4.8 °F
Humidity: 84% Humidity% 66% 75%
Wind Speed: 0.0mph WindSpeedKMHmph 0.0mph 0mph
Wind Gust: 0.0mph WindSpeedGustKMHmph - -
WindCalm - - North
Pressure: 1026.6 in PressurehPa in 1026.0 in -
Precipitation: 0.0 in      
Historical Graphs
 
 
Tabular Data for May 21, 2018
Time Temperature Dew Point Pressure Wind Wind Speed Wind Gust Humidity Rainfall Rate (Hourly) solar Conditions
TemperatureC °F DewpointC °F PressurehPa in Calm     Humidity% HourlyPrecipMM in SoftwareType W/m2 Conditions
00:03 11.4 °F 5.3 °F 1026.0 in Calm     66% 0.0 in WeatherDisplay:10.37 W/m2 CLR
00:08 11.3 °F 5.2 °F 1026.0 in Calm     66% 0.0 in WeatherDisplay:10.37 W/m2 CLR
00:13 11.2 °F 5.3 °F 1026.0 in Calm     67% 0.0 in WeatherDisplay:10.37 W/m2 CLR
00:18 11.1 °F 5.4 °F 1026.0 in Calm     68% 0.0 in WeatherDisplay:10.37 W/m2 CLR
00:24 11.0 °F 5.5 °F 1026.0 in Calm     69% 0.0 in WeatherDisplay:10.37 W/m2 CLR
00:29 10.8 °F 5.6 °F 1026.0 in Calm     70% 0.0 in WeatherDisplay:10.37 W/m2 CLR
00:34 10.7 °F 5.7 °F 1026.0 in Calm     71% 0.0 in WeatherDisplay:10.37 W/m2 CLR
00:39 10.6 °F 5.6 °F 1026.0 in Calm     71% 0.0 in WeatherDisplay:10.37 W/m2 CLR
00:44 10.4 °F 5.4 °F 1026.0 in Calm     71% 0.0 in WeatherDisplay:10.37 W/m2 CLR
00:49 10.3 °F 5.3 °F 1026.0 in Calm     71% 0.0 in WeatherDisplay:10.37 W/m2 CLR
00:54 10.2 °F 5.3 °F 1026.0 in Calm     72% 0.0 in WeatherDisplay:10.37 W/m2 CLR
00:59 10.0 °F 5.2 °F 1026.0 in Calm     72% 0.0 in WeatherDisplay:10.37 W/m2 CLR
01:04 9.9 °F 5.1 °F 1026.0 in Calm     72% 0.0 in WeatherDisplay:10.37 W/m2 CLR
01:09 9.8 °F 5.4 °F 1026.3 in Calm     74% 0.0 in WeatherDisplay:10.37 W/m2 CLR
01:14 9.7 °F 5.3 °F 1026.3 in Calm     74% 0.0 in WeatherDisplay:10.37 W/m2 CLR
01:19 9.4 °F 5.1 °F 1026.3 in Calm     74% 0.0 in WeatherDisplay:10.37 W/m2 CLR
01:24 9.2 °F 4.8 °F 1026.3 in Calm     74% 0.0 in WeatherDisplay:10.37 W/m2 CLR
01:30 9.2 °F 4.9 °F 1026.3 in Calm     75% 0.0 in WeatherDisplay:10.37 W/m2 CLR
01:35 9.1 °F 4.8 °F 1026.3 in Calm     75% 0.0 in WeatherDisplay:10.37 W/m2 CLR
01:40 8.9 °F 4.9 °F 1026.3 in Calm     76% 0.0 in WeatherDisplay:10.37 W/m2 CLR
01:45 8.8 °F 4.8 °F 1026.3 in Calm     76% 0.0 in WeatherDisplay:10.37 W/m2 CLR
01:50 8.8 °F 4.9 °F 1026.3 in Calm     77% 0.0 in WeatherDisplay:10.37 W/m2 CLR
01:55 8.8 °F 5.2 °F 1026.3 in Calm     78% 0.0 in WeatherDisplay:10.37 W/m2 CLR
02:00 8.7 °F 5.1 °F 1026.3 in Calm     78% 0.0 in WeatherDisplay:10.37 W/m2 CLR
02:05 8.5 °F 4.9 °F 1026.3 in Calm     78% 0.0 in WeatherDisplay:10.37 W/m2 CLR
02:10 8.4 °F 5.0 °F 1026.3 in Calm     79% 0.0 in WeatherDisplay:10.37 W/m2 CLR
02:15 8.4 °F 4.9 °F 1026.3 in Calm     79% 0.0 in WeatherDisplay:10.37 W/m2 CLR
02:20 8.3 °F 4.9 °F 1026.3 in Calm     79% 0.0 in WeatherDisplay:10.37 W/m2 CLR
02:25 8.3 °F 4.8 °F 1026.3 in Calm     79% 0.0 in WeatherDisplay:10.37 W/m2 CLR
02:30 8.2 °F 4.8 °F 1026.3 in Calm     79% 0.0 in WeatherDisplay:10.37 W/m2 CLR
02:35 8.2 °F 4.9 °F 1026.3 in Calm     80% 0.0 in WeatherDisplay:10.37 W/m2 CLR
02:41 8.1 °F 4.9 °F 1026.3 in Calm     80% 0.0 in WeatherDisplay:10.37 W/m2 CLR
02:46 8.1 °F 4.8 °F 1026.3 in Calm     80% 0.0 in WeatherDisplay:10.37 W/m2 CLR
02:51 8.0 °F 4.8 °F 1026.3 in Calm     80% 0.0 in WeatherDisplay:10.37 W/m2 CLR
02:56 7.9 °F 4.8 °F 1026.3 in Calm     81% 0.0 in WeatherDisplay:10.37 W/m2 CLR
03:01 7.7 °F 4.4 °F 1026.3 in Calm     80% 0.0 in WeatherDisplay:10.37 W/m2 CLR
03:06 7.5 °F 4.4 °F 1026.3 in Calm     81% 0.0 in WeatherDisplay:10.37 W/m2 CLR
03:11 7.4 °F 4.3 °F 1026.3 in Calm     81% 0.0 in WeatherDisplay:10.37 W/m2 CLR
03:16 7.3 °F 4.4 °F 1026.3 in Calm     82% 0.0 in WeatherDisplay:10.37 W/m2 CLR
03:21 7.3 °F 4.4 °F 1026.3 in Calm     82% 0.0 in WeatherDisplay:10.37 W/m2 CLR
03:26 7.2 °F 4.4 °F 1026.3 in Calm     83% 0.0 in WeatherDisplay:10.37 W/m2 CLR
03:31 7.1 °F 4.2 °F 1026.3 in Calm     82% 0.0 in WeatherDisplay:10.37 W/m2 CLR
03:36 6.9 °F 4.3 °F 1026.3 in Calm     83% 0.0 in WeatherDisplay:10.37 W/m2 CLR
03:41 6.9 °F 4.2 °F 1026.3 in Calm     83% 0.0 in WeatherDisplay:10.37 W/m2 CLR
03:47 6.8 °F 4.1 °F 1026.3 in Calm     83% 0.0 in WeatherDisplay:10.37 W/m2 CLR
03:52 6.7 °F 4.2 °F 1026.6 in Calm     84% 0.0 in WeatherDisplay:10.37 W/m2 CLR
03:57 6.7 °F 4.2 °F 1026.6 in Calm     84% 0.0 in WeatherDisplay:10.37 W/m2 CLR
04:02 6.7 °F 4.2 °F 1026.6 in Calm     84% 0.0 in WeatherDisplay:10.37 W/m2 CLR
04:07 6.6 °F 4.1 °F 1026.6 in Calm     84% 0.0 in WeatherDisplay:10.37 W/m2 CLR
Tuulensuunkaari, Veikkola, Suomi
Compliments of Weather Underground - 2 mb